Location: New Canada
(47.1017°N, 68.5042°W)
Time: 22:16:20
(UTC+00:00)

Max Valier Satellite - Visible Passes

Search period start: 24 April 2024 00:00
Search period end: 04 May 2024 00:00
Orbit: 357 x 363 km, 97.1° (Epoch: 24 April)

Date Brightness Start Highest point End Pass type
(mag) Time Alt. Az. Time Alt. Az. Time Alt. Az.
24 Apr ? 00:39:06 10° SSW 00:41:22 21° W 00:43:39 10° NW visible
27 Apr ? 00:32:37 10° SSW 00:35:04 26° W 00:37:33 10° NW visible
28 Apr ? 01:01:48 10° WSW 01:02:52 12° W 01:03:56 10° WNW visible
30 Apr ? 00:23:27 10° SSW 00:26:06 35° W 00:28:47 10° NNW visible
01 May ? 00:51:07 10° SW 00:52:57 16° W 00:54:47 10° NW visible
